Weather History for Brunswick, GA

Change the Weather History Date:

Saturday, August 9, 2014

  Actual Average Record
Temperature  
Mean Temperature 85 °F -  
Max Temperature 95 °F 91 °F 100 °F (2007)
Min Temperature 75 °F 72 °F 60 °F (2002)
Cooling Degree Days 20    
Growing Degree Days 35 (Base 50)    
Moisture  
Dew Point 73 °F    
Average Humidity 77    
Maximum Humidity 89    
Minimum Humidity 44    
Precipitation  
Precipitation 0.00 in - - ()
Sea Level Pressure  
Sea Level Pressure 30.03 in    
Wind  
Wind Speed 2 mph (SW)    
Max Wind Speed 13 mph    
Max Gust Speed 16 mph    
Visibility 9 miles    
Events Thunderstorm    
Averages and records for this station are not official NWS values.
T = Trace of Precipitation, MM = Missing Value Source: NWS Daily Summary

Daily Weather History Graph

Daily Weather History Graph

Search for Another Location

Airport:

Trip Planner

Search our weather history database for the weather conditions in past years. The results will help you decide how hot, cold, wet, or windy it might be!

Date:

Astronomy

Aug. 09, 2014 Rise Set
Actual Time 6:47 AM EDT 8:14 PM EDT
Civil Twilight 6:21 AM EDT 8:40 PM EDT
Nautical Twilight 5:50 AM EDT 9:11 PM EDT
Astronomical Twilight 5:18 AM EDT 9:43 PM EDT
Moon 7:16 PM EDT (8/9) 5:27 AM EDT (8/9)
Length of Visible Light 14h 18m
Length of Day
13h 26m
Waxing Gibbous, 98% of the Moon is Illuminated
Aug 9
Waxing Gibbous
Aug 10
Full
Aug 17
Last Quarter
Aug 25
New
Sep 2
First Quarter

Hourly Weather History & Observations

Time (EDT) Temp. Heat Index Dew Point Humidity Pressure Visibility Wind Dir Wind Speed Gust Speed Precip Events Conditions
12:15 AM 78.8 °F - 75.2 °F 89% 30.04 in 7.0 mi Calm Calm - N/A   Clear
12:35 AM 77.0 °F - 73.4 °F 89% 30.04 in 5.0 mi Calm Calm - N/A   Clear
12:55 AM 78.8 °F - 75.2 °F 89% 30.04 in 7.0 mi Calm Calm - N/A   Clear
1:15 AM 78.8 °F - 73.4 °F 83% 30.04 in 5.0 mi Calm Calm - N/A   Clear
1:35 AM 77.0 °F - 73.4 °F 89% 30.03 in 4.0 mi Calm Calm - N/A   Clear
1:55 AM 77.0 °F - 73.4 °F 89% 30.03 in 3.0 mi Calm Calm - N/A   Clear
2:15 AM 77.0 °F - 73.4 °F 89% 30.03 in 7.0 mi Calm Calm - N/A   Clear
2:35 AM 77.0 °F - 73.4 °F 89% 30.03 in 5.0 mi Calm Calm - N/A   Clear
2:55 AM 77.0 °F - 73.4 °F 89% 30.02 in 3.0 mi Calm Calm - N/A   Clear
3:15 AM 77.0 °F - 73.4 °F 89% 30.01 in 7.0 mi WNW 3.5 mph - N/A   Clear
3:35 AM 77.0 °F - 73.4 °F 89% 30.01 in 7.0 mi Calm Calm - N/A   Clear
3:55 AM 75.2 °F - 71.6 °F 89% 30.00 in 7.0 mi Calm Calm - N/A   Clear
4:15 AM 77.0 °F - 73.4 °F 89% 30.00 in 10.0 mi Calm Calm - N/A   Clear
4:35 AM 77.0 °F - 71.6 °F 83% 29.99 in 10.0 mi Calm Calm - N/A   Clear
4:55 AM 77.0 °F - 71.6 °F 83% 30.00 in 7.0 mi Calm Calm - N/A   Clear
5:15 AM 75.2 °F - 71.6 °F 89% 30.00 in 10.0 mi Calm Calm - N/A   Clear
5:35 AM 75.2 °F - 71.6 °F 89% 30.01 in 10.0 mi Calm Calm - N/A   Clear
5:55 AM 77.0 °F - 71.6 °F 83% 30.01 in 10.0 mi SSW 4.6 mph - N/A   Clear
6:15 AM 77.0 °F - 71.6 °F 83% 30.02 in 10.0 mi WSW 4.6 mph - N/A   Clear
6:35 AM 77.0 °F - 71.6 °F 83% 30.03 in 10.0 mi WSW 3.5 mph - N/A   Clear
6:55 AM 77.0 °F - 71.6 °F 83% 30.04 in 10.0 mi WSW 3.5 mph - N/A   Clear
7:15 AM 77.0 °F - 71.6 °F 83% 30.04 in 10.0 mi WSW 3.5 mph - N/A   Clear
7:35 AM 78.8 °F - 71.6 °F 78% 30.05 in 10.0 mi WSW 4.6 mph - N/A   Clear
7:55 AM 78.8 °F - 71.6 °F 78% 30.06 in 10.0 mi Calm Calm - N/A   Clear
8:15 AM 78.8 °F - 73.4 °F 83% 30.06 in 10.0 mi WSW 4.6 mph - N/A   Clear
8:35 AM 78.8 °F - 71.6 °F 78% 30.06 in 10.0 mi SW 5.8 mph - N/A   Clear
8:55 AM 80.6 °F 85.4 °F 73.4 °F 79% 30.06 in 10.0 mi WSW 9.2 mph - N/A   Clear
9:15 AM 82.4 °F 88.2 °F 73.4 °F 74% 30.06 in 10.0 mi WSW 6.9 mph - N/A   Clear
9:35 AM 82.4 °F 88.2 °F 73.4 °F 74% 30.06 in 10.0 mi WSW 6.9 mph - N/A   Clear
9:55 AM 86.0 °F 93.4 °F 73.4 °F 66% 30.06 in 10.0 mi WSW 4.6 mph - N/A   Clear
10:15 AM 86.0 °F 93.4 °F 73.4 °F 66% 30.06 in 10.0 mi West 5.8 mph - N/A   Clear
10:35 AM 86.0 °F 93.4 °F 73.4 °F 66% 30.06 in 10.0 mi West 5.8 mph - N/A   Clear
10:55 AM 87.8 °F 95.6 °F 73.4 °F 62% 30.06 in 10.0 mi SW 4.6 mph - N/A   Clear
11:15 AM 89.6 °F 98.2 °F 73.4 °F 59% 30.06 in 10.0 mi SW 3.5 mph - N/A   Clear
11:35 AM 89.6 °F 96.2 °F 71.6 °F 55% 30.06 in 10.0 mi SSW 6.9 mph - N/A   Clear
11:55 AM 89.6 °F 96.2 °F 71.6 °F 55% 30.05 in 10.0 mi South 3.5 mph - N/A   Clear
12:15 PM 89.6 °F 96.2 °F 71.6 °F 55% 30.05 in 10.0 mi SSW 8.1 mph - N/A   Clear
12:35 PM 91.4 °F 98.4 °F 71.6 °F 52% 30.04 in 10.0 mi SW 5.8 mph - N/A   Clear
1:15 PM 93.2 °F 100.5 °F 71.6 °F 49% 30.03 in 10.0 mi South 5.8 mph - N/A   Mostly Cloudy
1:35 PM 93.2 °F 100.5 °F 71.6 °F 49% 30.03 in 10.0 mi SSW 3.5 mph - N/A   Mostly Cloudy
1:55 PM 95.0 °F 103.2 °F 71.6 °F 47% 30.02 in 10.0 mi West 3.5 mph - N/A   Scattered Clouds
2:15 PM 95.0 °F 101.3 °F 69.8 °F 44% 30.01 in 10.0 mi SW 5.8 mph - N/A   Scattered Clouds
2:35 PM 91.4 °F 98.4 °F 71.6 °F 52% 30.00 in 10.0 mi SE 9.2 mph - N/A Thunderstorm Mostly Cloudy
2:55 PM 89.6 °F 96.2 °F 71.6 °F 55% 30.01 in 10.0 mi SW 12.7 mph - N/A Thunderstorm Thunderstorm
3:15 PM 80.6 °F 83.2 °F 68.0 °F 65% 30.01 in 3.0 mi ESE 6.9 mph 16.1 mph N/A Thunderstorm Thunderstorm
3:35 PM 80.6 °F 84.6 °F 71.6 °F 74% 30.00 in 10.0 mi SSE 5.8 mph - N/A Thunderstorm Thunderstorm
3:55 PM 80.6 °F 85.4 °F 73.4 °F 79% 30.01 in 10.0 mi NE 8.1 mph - N/A Thunderstorm Thunderstorm
4:15 PM 77.0 °F - 71.6 °F 83% 30.03 in 10.0 mi NNE 5.8 mph - N/A Thunderstorm Thunderstorm
4:35 PM 77.0 °F - 71.6 °F 83% 30.02 in 10.0 mi NNW 4.6 mph - N/A Thunderstorm Mostly Cloudy
4:55 PM 77.0 °F - 71.6 °F 83% 30.00 in 10.0 mi East 3.5 mph - N/A Thunderstorm Mostly Cloudy
5:15 PM 78.8 °F - 71.6 °F 78% 30.00 in 10.0 mi ESE 8.1 mph - N/A Thunderstorm Mostly Cloudy
5:35 PM 78.8 °F - 71.6 °F 78% 30.01 in 10.0 mi Calm Calm - N/A Thunderstorm Scattered Clouds
5:55 PM 78.8 °F - 73.4 °F 83% 30.01 in 10.0 mi East 3.5 mph - N/A Thunderstorm Clear
6:15 PM 78.8 °F - 73.4 °F 83% 30.01 in 10.0 mi SE 4.6 mph - N/A   Clear
6:35 PM 78.8 °F - 73.4 °F 83% 30.00 in 10.0 mi ESE 3.5 mph - N/A Thunderstorm Clear
6:55 PM 78.8 °F - 73.4 °F 83% 30.01 in 10.0 mi Calm Calm - N/A   Clear
7:15 PM 78.8 °F - 73.4 °F 83% 30.01 in 10.0 mi Calm Calm - N/A   Clear
7:35 PM 78.8 °F - 73.4 °F 83% 30.00 in 10.0 mi Calm Calm - N/A   Clear
7:55 PM 78.8 °F - 71.6 °F 78% 30.00 in 10.0 mi Calm Calm - N/A   Clear
8:15 PM 77.0 °F - 73.4 °F 89% 30.00 in 7.0 mi Calm Calm - N/A   Clear
8:35 PM 77.0 °F - 73.4 °F 89% 30.01 in 10.0 mi Calm Calm - N/A   Clear
8:55 PM 77.0 °F - 73.4 °F 89% 30.01 in 10.0 mi Calm Calm - N/A   Clear
9:15 PM 78.8 °F - 73.4 °F 83% 30.01 in 10.0 mi Calm Calm - N/A   Clear
9:55 PM 78.8 °F - 73.4 °F 83% 30.02 in 10.0 mi Calm Calm - N/A   Clear
10:15 PM 80.6 °F 85.4 °F 73.4 °F 79% 30.03 in 10.0 mi Calm Calm - N/A   Scattered Clouds
10:35 PM 80.6 °F 85.4 °F 73.4 °F 79% 30.03 in 10.0 mi West 3.5 mph - N/A   Clear
10:55 PM 78.8 °F - 73.4 °F 83% 30.03 in 10.0 mi SW 4.6 mph - N/A   Clear
11:15 PM 78.8 °F - 73.4 °F 83% 30.04 in 10.0 mi WSW 3.5 mph - N/A   Clear
11:35 PM 78.8 °F - 73.4 °F 83% 30.03 in 10.0 mi SSW 4.6 mph - N/A   Clear
11:55 PM 77.0 °F - 73.4 °F 89% 30.03 in 10.0 mi Calm Calm - N/A   Clear